Simultaneous Nadir Overpasses (SNOs) Predictions

Prediction of SNOs between AQUA and NOAA-19 Satellite Orbit:

Table of predicted SNOs for the next 14.0 days since TLE Epoch: 10/21/2023
Index Date (AQUA) Time (AQUA) Lat,Lon (AQUA) SZA (AQUA ) Date (NOAA-19) Time (NOAA-19) Lat,Lon (NOAA-19) SZA (NOAA-19 ) Distance(km) Time Diff (sec)
1 10/21/2023 04:35:04 76.13, 104.11 86.67 10/21/2023 04:34:28 76.13, 104.17 86.67 1.49 36
2 10/21/2023 05:24:28 -76.19, -88.42 93.26 10/21/2023 05:25:24 -76.19, -88.36 93.27 1.67 56
3 10/23/2023 09:16:24 76.10, 33.93 87.41 10/23/2023 09:15:48 76.12, 33.86 87.44 3.34 36
4 10/23/2023 10:05:48 -76.15,-158.60 92.53 10/23/2023 10:06:44 -76.16,-158.74 92.52 3.80 56
5 10/25/2023 13:57:44 76.12, -36.44 88.19 10/25/2023 13:57:08 76.10, -36.48 88.18 1.72 36
6 10/25/2023 14:47:08 -76.17, 131.05 91.75 10/25/2023 14:48:03 -76.17, 131.02 91.75 0.71 55
7 10/27/2023 18:39:02 76.09,-106.67 88.91 10/27/2023 18:38:27 76.12,-106.69 88.94 2.81 35
8 10/27/2023 19:28:26 -76.14, 60.83 91.03 10/27/2023 19:29:22 -76.17, 60.76 91.01 3.14 56
9 10/29/2023 23:20:20 76.13,-177.07 89.68 10/29/2023 23:19:46 76.12,-176.93 89.68 3.77 34
10 10/30/2023 00:09:44 -76.18, -9.57 90.26 10/30/2023 00:10:41 -76.16, -9.54 90.28 2.16 57
11 11/01/2023 04:01:36 76.12, 112.65 90.39 11/01/2023 04:01:05 76.12, 112.78 90.39 3.53 31
12 11/01/2023 04:51:00 -76.17, -79.83 89.56 11/01/2023 04:52:00 -76.14, -79.87 89.59 3.07 60
13 11/03/2023 08:42:50 76.08, 42.51 91.04 11/03/2023 08:42:24 76.11, 42.47 91.07 3.13 26



Historial Predications of SNOs between AQUA and NOAA-19
